FW6455 Weather Reports


Display with metric or nautical units.
time (UTC)temp
F
wind
direction
speed
MPH
gust
MPH
rain 1hr
in
rain 24hr
in
rain mn
in
humidity
%
barometer
mb
20260505164550 80 213 2.0 5.0 0.00 0.00 0.00 74 1006.7
20260505164039 80 243 1.0 4.0 0.00 0.00 0.00 76 1006.7
20260505163538 79 221 1.0 5.0 0.00 0.00 0.00 77 1006.8
20260505163052 79 235 2.0 6.0 0.00 0.00 0.00 76 1006.8
20260505162539 79 156 2.0 6.0 0.00 0.00 0.00 76 1007.0
20260505162039 78 205 2.0 6.0 0.00 0.00 0.00 77 1006.9
20260505161548 78 158 1.0 5.0 0.00 0.00 0.00 78 1007.0
20260505161039 78 264 2.0 6.0 0.00 0.00 0.00 78 1007.2
20260505160539 77 198 2.0 6.0 0.00 0.00 0.00 78 1007.1
20260505153056 77 196 2.0 6.0 0.00 0.00 0.00 78 1006.9
20260505152538 77 169 1.0 4.0 0.00 0.00 0.00 79 1006.8
20260505152037 77 165 1.0 4.0 0.00 0.00 0.00 79 1007.0
20260505151554 76 224 1.0 6.0 0.00 0.00 0.00 81 1007.0
20260505151039 76 206 2.0 6.0 0.00 0.00 0.00 80 1007.0
20260505150537 76 219 1.0 5.0 0.00 0.00 0.00 80 1007.1
20260505140537 73 219 1.0 3.0 0.00 0.00 0.00 85 1006.8
20260505125039 71 0 1.0 2.0 0.00 0.00 0.00 87 1006.4
20260505124545 71 160 0.0 2.0 0.00 0.00 0.00 87 1006.5
20260505124038 71 171 1.0 2.0 0.00 0.00 0.00 87 1006.5
20260505123541 71 186 1.0 2.0 0.00 0.00 0.00 87 1006.4
20260505123112 71 165 0.0 2.0 0.00 0.00 0.00 87 1006.4
20260505122539 71 210 0.0 2.0 0.00 0.00 0.00 87 1006.2
20260505122037 70 194 0.0 2.0 0.00 0.00 0.00 87 1006.1
20260505121551 70 171 0.0 2.0 0.00 0.00 0.00 87 1006.0
20260505121040 70 210 0.0 2.0 0.00 0.00 0.00 87 1006.0
20260505120536 70 205 0.0 2.0 0.00 0.00 0.00 87 1006.1
20260505120056 70 172 0.0 2.0 0.00 0.00 0.00 87 1006.1
20260505115538 70 153 0.0 2.0 0.00 0.00 0.00 87 1006.0
20260505115038 70 221 0.0 2.0 0.00 0.00 0.00 87 1006.0
20260505114550 70 148 0.0 2.0 0.00 0.00 0.00 87 1005.9
20260505114038 70 217 0.0 2.0 0.00 0.00 0.00 87 1006.0
20260505113542 70 0 0.0 3.0 0.00 0.00 0.00 87 1006.0
20260505113051 70 204 0.0 3.0 0.00 0.00 0.00 87 1006.0
20260505112536 70 188 0.0 3.0 0.00 0.00 0.00 87 1005.9
20260505112037 70 212 0.0 3.0 0.00 0.00 0.00 87 1005.9
20260505111547 70 217 0.0 4.0 0.00 0.00 0.00 87 1005.8
20260505111036 70 181 0.0 4.0 0.00 0.00 0.00 87 1005.7
20260505110539 70 141 1.0 4.0 0.00 0.00 0.00 87 1005.7
20260505102039 70 207 1.0 4.0 0.00 0.00 0.00 86 1006.0
20260505101548 70 210 0.0 2.0 0.00 0.00 0.00 86 1006.0
20260505101039 71 192 1.0 2.0 0.00 0.00 0.00 86 1005.9
20260505100541 71 183 0.0 2.0 0.00 0.00 0.00 86 1005.9
20260505100048 71 198 0.0 4.0 0.00 0.00 0.00 86 1005.9
20260505095538 71 172 1.0 4.0 0.00 0.00 0.00 86 1006.1
20260505095038 71 192 1.0 4.0 0.00 0.00 0.00 86 1006.1
20260505094553 71 196 1.0 4.0 0.00 0.00 0.00 86 1006.1
20260505094037 71 0 1.0 4.0 0.00 0.00 0.00 86 1006.2
20260505093539 71 223 1.0 3.0 0.00 0.00 0.00 86 1006.2
20260505093055 71 240 0.0 4.0 0.00 0.00 0.00 86 1006.3
20260505092537 71 211 0.0 4.0 0.00 0.00 0.00 86 1006.4
20260505092038 71 180 1.0 3.0 0.00 0.00 0.00 86 1006.2
20260505091613 71 291 0.0 5.0 0.00 0.00 0.00 86 1006.3
20260505091037 71 153 0.0 5.0 0.00 0.00 0.00 86 1006.3
20260505090537 71 205 0.0 4.0 0.00 0.00 0.00 86 1006.2
20260505090109 71 202 1.0 4.0 0.00 0.00 0.00 86 1006.1
20260505085537 71 149 1.0 4.0 0.00 0.00 0.00 86 1006.1
20260505085038 71 207 1.0 5.0 0.00 0.00 0.00 86 1006.1
20260505084605 71 200 2.0 5.0 0.00 0.00 0.00 86 1006.2
20260505084037 71 188 1.0 5.0 0.00 0.00 0.00 86 1006.1
20260505083537 71 186 1.0 3.0 0.00 0.00 0.00 86 1006.1
20260505083104 70 174 1.0 3.0 0.00 0.00 0.00 86 1006.2
20260505082537 70 175 1.0 4.0 0.00 0.00 0.00 86 1006.1
20260505082037 70 131 1.0 4.0 0.00 0.00 0.00 86 1006.2
20260505081557 70 203 1.0 3.0 0.00 0.00 0.00 86 1006.3
20260505081038 70 179 1.0 3.0 0.00 0.00 0.00 87 1006.5
20260505080541 70 157 0.0 3.0 0.00 0.00 0.00 86 1006.6
20260505080058 70 184 0.0 3.0 0.00 0.00 0.00 86 1006.6
20260505075538 70 212 1.0 3.0 0.00 0.00 0.00 86 1006.5
20260505075038 70 196 0.0 6.0 0.00 0.00 0.00 86 1006.6
20260505074552 70 166 0.0 6.0 0.00 0.00 0.00 86 1006.7
20260505074040 70 227 0.0 3.0 0.00 0.00 0.00 86 1006.7
20260505073539 70 193 1.0 3.0 0.00 0.00 0.00 86 1006.9
20260505073054 70 0 1.0 3.0 0.00 0.00 0.00 86 1006.9
20260505072537 70 156 0.0 3.0 0.00 0.00 0.00 86 1007.1
20260505072037 70 191 0.0 4.0 0.00 0.00 0.00 85 1007.2
20260505071552 70 210 1.0 4.0 0.00 0.00 0.00 85 1007.2
20260505071040 70 204 2.0 4.0 0.00 0.00 0.00 85 1007.3
20260505070539 70 199 1.0 3.0 0.00 0.00 0.00 85 1007.3
20260505070053 70 137 1.0 3.0 0.00 0.00 0.00 85 1007.4
20260505065539 71 218 1.0 3.0 0.00 0.00 0.00 85 1007.4
20260505065040 71 211 1.0 3.0 0.00 0.00 0.00 85 1007.5
20260505064551 71 215 1.0 3.0 0.00 0.00 0.00 85 1007.6
20260505064038 71 200 0.0 3.0 0.00 0.00 0.00 84 1007.7
20260505063538 71 120 0.0 3.0 0.00 0.00 0.00 84 1007.7
20260505063053 71 232 1.0 3.0 0.00 0.00 0.00 84 1007.7
20260505062540 71 222 1.0 3.0 0.00 0.00 0.00 84 1007.7
20260505062038 71 189 1.0 3.0 0.00 0.00 0.00 83 1007.7
20260505061555 71 201 0.0 2.0 0.00 0.00 0.00 83 1007.7
20260505061038 71 158 0.0 3.0 0.00 0.00 0.00 83 1007.7
20260505060538 71 154 1.0 3.0 0.00 0.00 0.00 83 1007.6
20260505055538 71 207 1.0 4.0 0.00 0.00 0.00 82 1007.6
20260505055037 71 188 1.0 3.0 0.00 0.00 0.00 82 1007.8
20260505054556 71 200 1.0 3.0 0.00 0.00 0.00 82 1007.8
20260505054040 72 231 1.0 2.0 0.00 0.00 0.00 82 1007.8
20260505053540 72 185 0.0 2.0 0.00 0.00 0.00 81 1007.9
20260505053058 72 195 0.0 3.0 0.00 0.00 0.00 81 1008.0
20260505052539 72 215 1.0 3.0 0.00 0.00 0.00 81 1008.1
20260505052038 72 75 0.0 2.0 0.00 0.00 0.00 81 1008.1
20260505051550 72 176 0.0 2.0 0.00 0.00 0.00 80 1008.0
20260505051038 72 189 1.0 4.0 0.00 0.00 0.00 80 1008.0
20260505050541 72 0 0.0 4.0 0.00 0.00 0.00 80 1008.1
20260505041554 72 112 0.0 3.0 0.00 0.00 0.00 79 1008.0
20260505041041 72 201 0.0 3.0 0.00 0.00 0.00 79 1008.1
20260505040541 72 210 0.0 2.0 0.00 0.00 0.00 79 1008.1
20260505040053 72 0 0.0 1.0 0.00 0.00 0.00 79 1008.2
20260505035538 72 176 0.0 1.0 0.00 0.00 0.00 79 1008.2
20260505035042 72 0 0.0 1.0 0.00 0.00 0.00 79 1008.0
20260505034551 72 187 0.0 2.0 0.00 0.00 0.00 78 1008.1
20260505034040 72 155 0.0 2.0 0.00 0.00 0.00 78 1008.0
20260505033540 72 149 0.0 2.0 0.00 0.00 0.00 78 1008.0
20260505033049 72 0 0.0 2.0 0.00 0.00 0.00 78 1007.9
20260505032539 72 162 0.0 2.0 0.00 0.00 0.00 78 1008.1
20260505032039 72 174 0.0 2.0 0.00 0.00 0.00 78 1008.3
20260505031551 73 158 0.0 2.0 0.00 0.00 0.00 77 1008.2
20260505031039 73 155 0.0 2.0 0.00 0.00 0.00 77 1008.3
20260505030537 73 157 0.0 2.0 0.00 0.00 0.00 77 1008.3
20260505030119 73 207 0.0 1.0 0.00 0.00 0.00 77 1008.2
20260505025537 73 214 0.0 1.0 0.00 0.00 0.00 76 1008.2
20260505025040 73 206 0.0 2.0 0.00 0.00 0.00 76 1008.0
20260505024550 73 198 0.0 3.0 0.00 0.00 0.00 75 1007.8
20260505024038 73 185 1.0 3.0 0.00 0.00 0.00 75 1008.0
20260505023540 73 216 1.0 3.0 0.00 0.00 0.00 75 1007.8
20260505023046 74 189 1.0 3.0 0.00 0.00 0.00 75 1007.8
20260505022538 74 195 1.0 3.0 0.00 0.00 0.00 75 1007.7
20260505022038 74 0 0.0 3.0 0.00 0.00 0.00 75 1007.7
20260505021552 74 135 1.0 3.0 0.00 0.00 0.00 75 1007.8
20260505021040 74 193 0.0 2.0 0.00 0.00 0.00 75 1007.8
20260505020541 74 212 0.0 3.0 0.00 0.00 0.00 75 1007.8
20260505020051 74 117 0.0 3.0 0.00 0.00 0.00 74 1007.8
20260505015541 74 160 0.0 2.0 0.00 0.00 0.00 74 1007.6
20260505015040 74 0 0.0 2.0 0.00 0.00 0.00 74 1007.6
20260505014603 74 159 0.0 2.0 0.00 0.00 0.00 74 1007.9
20260505014038 74 197 0.0 2.0 0.00 0.00 0.00 73 1007.7
20260505013539 75 0 1.0 2.0 0.00 0.00 0.00 73 1007.7
20260505013055 75 207 0.0 2.0 0.00 0.00 0.00 73 1007.8
20260505012537 75 130 0.0 2.0 0.00 0.00 0.00 72 1007.8
20260505012040 75 0 0.0 3.0 0.00 0.00 0.00 72 1007.8
20260505011556 75 191 0.0 3.0 0.00 0.00 0.00 72 1007.8
20260505011042 75 179 1.0 3.0 0.00 0.00 0.00 72 1007.8
20260505010539 75 197 1.0 2.0 0.00 0.00 0.00 72 1007.8
20260505005542 76 166 0.0 3.0 0.00 0.00 0.00 71 1007.9
20260505005038 76 186 0.0 3.0 0.00 0.00 0.00 70 1007.9
20260505004553 76 213 0.0 3.0 0.00 0.00 0.00 70 1007.9
20260505004039 76 188 1.0 4.0 0.00 0.00 0.00 70 1008.0
20260505003539 76 192 1.0 4.0 0.00 0.00 0.00 69 1007.9
20260505003057 77 206 1.0 5.0 0.00 0.00 0.00 69 1008.0
20260505002540 77 188 2.0 5.0 0.00 0.00 0.00 69 1008.1
20260505002037 77 195 1.0 5.0 0.00 0.00 0.00 68 1008.1
20260505001552 77 245 1.0 3.0 0.00 0.00 0.00 68 1008.1
20260505001039 77 190 1.0 3.0 0.00 0.00 0.00 68 1008.2
20260505000539 77 195 1.0 4.0 0.00 0.00 0.00 68 1008.2
20260505000058 77 184 1.0 4.0 0.00 0.00 0.00 68 1008.2
20260504235543 77 197 1.0 4.0 0.00 0.00 0.00 67 1008.2
20260504235038 77 198 0.0 4.0 0.00 0.00 0.00 68 1008.3
20260504234553 77 0 0.0 4.0 0.00 0.00 0.00 68 1008.4
20260504234040 77 232 1.0 4.0 0.00 0.00 0.00 68 1008.4
20260504233540 77 195 1.0 5.0 0.00 0.00 0.00 67 1008.5
20260504233049 77 201 1.0 5.0 0.00 0.00 0.00 67 1008.4
20260504232539 77 157 2.0 5.0 0.00 0.00 0.00 66 1008.4
20260504232039 78 200 1.0 5.0 0.00 0.00 0.00 67 1008.4
20260504231548 78 153 2.0 5.0 0.00 0.00 0.00 66 1008.3
20260504231039 78 215 2.0 5.0 0.00 0.00 0.00 66 1008.5
20260504230540 78 208 2.0 5.0 0.00 0.00 0.00 65 1008.6
20260504230047 78 160 1.0 5.0 0.00 0.00 0.00 65 1008.7
20260504225539 78 180 2.0 5.0 0.00 0.00 0.00 66 1008.8
20260504225039 78 193 2.0 5.0 0.00 0.00 0.00 65 1008.7
20260504224552 78 122 1.0 5.0 0.00 0.00 0.00 66 1008.8
20260504224039 78 200 1.0 6.0 0.00 0.00 0.00 65 1008.9
20260504223538 79 174 3.0 6.0 0.00 0.00 0.00 65 1008.9
20260504223104 79 243 2.0 6.0 0.00 0.00 0.00 64 1008.9
20260504222540 79 211 2.0 5.0 0.00 0.00 0.00 64 1008.9
20260504222039 79 218 2.0 6.0 0.00 0.00 0.00 64 1008.8
20260504221551 79 216 2.0 6.0 0.00 0.00 0.00 64 1008.8
20260504221041 79 139 2.0 6.0 0.00 0.00 0.00 65 1008.9
20260504220541 79 158 1.0 5.0 0.00 0.00 0.00 64 1009.1
20260504220053 79 204 2.0 5.0 0.00 0.00 0.00 64 1009.1
20260504215545 79 124 2.0 5.0 0.00 0.00 0.00 64 1009.1
20260504215041 79 193 1.0 5.0 0.00 0.00 0.00 64 1009.2
20260504214553 79 206 2.0 7.0 0.00 0.00 0.00 63 1009.3
20260504214041 79 233 2.0 7.0 0.00 0.00 0.00 64 1009.4
20260504213539 79 217 2.0 5.0 0.00 0.00 0.00 64 1009.4
20260504213050 79 205 2.0 7.0 0.00 0.00 0.00 63 1009.6
20260504212540 79 242 3.0 7.0 0.00 0.00 0.00 63 1009.6
20260504212039 80 109 2.0 6.0 0.00 0.00 0.00 63 1009.6
20260504211634 80 156 3.0 6.0 0.00 0.00 0.00 63 1009.6
20260504211039 80 133 1.0 8.0 0.00 0.00 0.00 63 1009.7
20260504210538 80 205 2.0 8.0 0.00 0.00 0.00 64 1009.8
20260504210052 80 175 3.0 6.0 0.00 0.00 0.00 63 1009.9
20260504205539 80 197 1.0 5.0 0.00 0.00 0.00 63 1010.1
20260504205039 80 186 2.0 5.0 0.00 0.00 0.00 63 1010.0
20260504204547 79 211 2.0 7.0 0.00 0.00 0.00 63 1010.1
20260504204039 79 179 2.0 7.0 0.00 0.00 0.00 62 1010.2
20260504203539 80 182 2.0 7.0 0.00 0.00 0.00 62 1010.5
20260504203102 80 172 1.0 4.0 0.00 0.00 0.00 63 1010.7
20260504202538 79 172 2.0 5.0 0.00 0.00 0.00 63 1010.9
20260504202038 79 208 2.0 5.0 0.00 0.00 0.00 63 1011.0
20260504201555 79 204 2.0 7.0 0.00 0.00 0.00 63 1011.0
20260504201038 79 254 2.0 7.0 0.00 0.00 0.00 63 1011.1
20260504200539 79 195 1.0 7.0 0.00 0.00 0.00 63 1011.2
20260504200052 79 199 3.0 8.0 0.00 0.00 0.00 64 1011.2
20260504195539 79 200 3.0 8.0 0.00 0.00 0.00 63 1011.4
20260504195037 79 224 3.0 8.0 0.00 0.00 0.00 62 1011.3
20260504194554 79 146 2.0 4.0 0.00 0.00 0.00 62 1011.4
20260504194037 79 146 1.0 7.0 0.00 0.00 0.00 64 1011.5
20260504193540 79 216 3.0 7.0 0.00 0.00 0.00 62 1011.6
20260504193049 79 207 3.0 7.0 0.00 0.00 0.00 61 1011.6
20260504192538 79 192 2.0 5.0 0.00 0.00 0.00 62 1011.7
20260504192038 79 185 3.0 5.0 0.00 0.00 0.00 61 1011.8
20260504191609 79 207 1.0 5.0 0.00 0.00 0.00 62 1011.7
20260504191039 78 159 2.0 5.0 0.00 0.00 0.00 61 1011.9
20260504190538 78 150 2.0 6.0 0.00 0.00 0.00 62 1012.0
20260504190105 78 188 2.0 6.0 0.00 0.00 0.00 62 1012.1
20260504185539 78 229 3.0 6.0 0.00 0.00 0.00 61 1012.1
20260504185038 78 139 3.0 6.0 0.00 0.00 0.00 61 1012.1
20260504184552 78 230 3.0 7.0 0.00 0.00 0.00 60 1012.3
20260504184040 78 151 3.0 7.0 0.00 0.00 0.00 60 1012.3
20260504183542 78 208 1.0 7.0 0.00 0.00 0.00 61 1012.3
20260504183048 78 252 2.0 7.0 0.00 0.00 0.00 60 1012.5
20260504182542 77 176 2.0 6.0 0.00 0.00 0.00 60 1012.7
20260504182039 78 176 2.0 6.0 0.00 0.00 0.00 60 1012.8
20260504181600 77 212 2.0 6.0 0.00 0.00 0.00 60 1012.8
20260504181037 78 156 3.0 6.0 0.00 0.00 0.00 58 1012.8
20260504180538 78 168 2.0 9.0 0.00 0.00 0.00 59 1012.7
20260504180056 78 212 3.0 9.0 0.00 0.00 0.00 58 1013.1
20260504175539 78 156 3.0 8.0 0.00 0.00 0.00 59 1013.1
20260504175039 78 188 2.0 7.0 0.00 0.00 0.00 58 1013.1
20260504174552 77 327 1.0 5.0 0.00 0.00 0.00 60 1013.3
20260504174039 77 165 2.0 6.0 0.00 0.00 0.00 59 1013.3
20260504173538 77 213 2.0 6.0 0.00 0.00 0.00 58 1013.5
20260504173054 77 179 2.0 6.0 0.00 0.00 0.00 57 1013.4
20260504172538 77 88 1.0 6.0 0.00 0.00 0.00 59 1013.6
20260504172039 76 207 2.0 6.0 0.00 0.00 0.00 57 1013.7
20260504171548 76 213 2.0 5.0 0.00 0.00 0.00 57 1013.6
20260504171040 76 219 2.0 6.0 0.00 0.00 0.00 58 1013.9
20260504170539 75 190 2.0 6.0 0.00 0.00 0.00 57 1014.1